FENGYUN 1C DEB

Satellite information

Favourite Embed

Satellite Type and Status

DEBRISIN ORBIT

Key statistics

Satellite FENGYUN 1C DEB at a glance.

Uptime

9715

Days in orbit

Revolutions

≈ 14.2

Per day

Orbit

SSO

Sun Synchronous Orbit

Inclination

99.1

Latest

Satellite identification and parameters

Extended collection of information and parameters for FENGYUN 1C DEB.

Object identification

Identified? True

Debris? True

Object name: FENGYUN 1C DEB

International designator: 1999-025DWZ

Object number (NORAD): 36272

Object ID (CCSDS): 36272

Country: PEOPLES REPUBLIC OF CHINA (PRC)

Current information (Y/N): Y

RCS size: SMALL

Orbital parameters

Period: 101.605 minutes

Inclination: 99.1372 deg

SMA: 7212.812 km

Apoapsis: 955.793 km

Periapsis: 713.561 km

RAAN: 221.6218 deg

Eccentricy: 0.01679178

Argument of periapsis: 272.0385 deg

Mean anomaly: 86.1567 deg

Mean motion: 14.17247938 rev/day

Mean motion (dot): 0.0000187 rev/day2

B* drag term: 0.00082726779 1/REarth

Two-line elements (TLE)

Creation date: Dec. 11, 2025, 7:14 p.m.

Reference frame: TEME

Reference center: EARTH

Epoch: Dec. 11, 2025, 8:54 a.m. UTC

TLE line 0: 0 FENGYUN 1C DEB

TLE line 1: 1 36272U 99025DWZ 25345.37144422 .00001870 00000-0 82727-3 0 9996

TLE line 2: 2 36272 99.1372 221.6218 0167918 272.0385 86.1567 14.17247938635973

Live tracking on map

Real-time ground track for satellite FENGYUN 1C DEB.

In-orbit conjunctions

A list of the most updated potential collisions computed for object FENGYUN 1C DEB.

Target Orbit TCA Probability of collision Miss distance Type
NOAA 16 DEB SSO 2025-07-07 04:10:43 0.0002200831 200.0 (m) DEBRIS
METEOR 2-19 LEO 2025-06-03 01:41:10 0.0006226479 91.0 (m) PAYLOAD
CZ-6A R/B LEO 2025-02-20 17:46:40 0.000107018 85.0 (m) ROCKET BODY
NOAA 16 DEB SSO 2024-11-16 12:59:09 0.001031287 167.0 (m) DEBRIS
MAST SSO 2024-07-27 15:33:22 0.0002602955 447.0 (m) PAYLOAD

Associated space launch

Chinese polar orbiting meteorological satellite

FENGYUN 1C DEB was lifted into orbit during the mission ‘Long March 4B | Feng Yun 1C’, on board a Long March 4B space rocket.

The launch took place on May 10, 1999, 1:33 a.m. from Launch Complex 7.

For more information about the launch, click the button.

Launch to space Long March 4B | Feng Yun 1C
Long March 4B | Feng Yun 1C

Agency: N/A

Status: Launch Successful

Launch date: May 10, 1999, 1:33 a.m. UTC

Rocket: Long March 4B

Launch pad: Launch Complex 7

Location: Taiyuan Satellite Launch Center, People's Republic of China

...

Latest news about this satellite

There are no fresh news available about this satellite. Check back as we update our databases every day.


Newsletter sign-up

Weekly statistics, charts and insights to help you stay on top of the space industry.